User: anonymous   Login
Location: Caltech
(34.1382°N, 118.1253°W)
Time: 18:48:19
(UTC-08:00)
Language:

HO-68 - Orbit

View from above orbital plane
View from above orbital plane
View from above satellite
View from above satellite

Ground track
Ground track

The orbit data is extracted from the following two-line orbital elements,

1 36122U 09072B   15062.06318818 -.00000060  00000-0 -43517-4 0  9993
2 36122 100.2105 110.5903 0007498 008.5314 351.5923 13.16324469250490
Epoch (UTC): 03 March 2015 01:30:59
Eccentricity: 0.0007498
inclination: 100.2105°
perigee height: 1193 km
apogee height: 1204 km
right ascension of ascending node: 110.5903°
argument of perigee: 8.5314°
revolutions per day: 13.16324469
mean anomaly at epoch: 351.5923°
orbit number at epoch: 25049

The dashed part of the orbit path shows where the satellite is in the earth's shadow,  

DLR